星链-1290 (STARLINK-1290 )

导读

STARLINK-1290是美国太空探索技术公司(SpaceX)于2020年3月18日发射的星链计划卫星,隶属于SpaceX星链互联网星座项目。星链旨在构建全球卫星互联网,该卫星为星座组网提供支撑,为全球偏远地区等提供低延迟互联网服务,推动太空互联网基础设施建设。

基本信息
目录编号:
45392
目录名称:
STARLINK-1290
国际标识:
2020-019AJ
轨道中心:
EARTH
卫星名称:
星链-1290
卫星全名:
星链-1290 (STARLINK-1290 )
卫星状态:
已陨落 最后检测时间 2024-05-02
发射日期:
2020-03-18 UTC
国别 :
美国 (US)
星等 :
--
该卫星已列入 空间交会检测服务 Space Conjunction Data Service (SCDS) ,当前飞行风险评估等级: 无高风险
轨道信息
数据来源 国际轨道数据
星历时间: 2024-05-03T09:26:19+0800
轨道信息已过期862天
半长轴: 6512.976km
偏心率: 0.0003123
轨道倾角: 52.951°
近地点辐角 305.806°
升交点赤经 113.526°
平近点角 220.601°
近地点: 132.806km
远地点: 136.876km
周期: 87.182分钟
每日圈数: 16.517094
详细信息
固有亮度:
5
最大亮度:
2.5
卫星平台:
Starlink V1.0
覆盖范围:
全球
运营商:
太空探索技术公司
运营商所在国:
美国
制造商(研发单位):
太空探索技术公司
制造商所在国:
美国
使用方式:
暂无
卫星简介
星链(Starlink)计划是由太空探索技术公司(SpaceX)提出的一个巨型低轨卫星互联网星座项目,计划在2019年至2024年间在太空搭建由约1.2万颗卫星组成的“星链”网络,其中1584颗将部署在地球上空550千米处的近地轨道,并从2020年开始工作。该卫星已陨落。
与全量物体交会距离演化趋势
与全量物体交会风险概率演化趋势